Pagrindinis puslapis
METAR-TAF:

METAR-TAF

Oro uostai :

Perry Lefors Field

Pampa, Teksasas, Jungtinės Amerikos Valstijos

platuma: 35-36-46N, ilguma: 100-59-46W, Aukštis: 989 m

Dabartinis oras

Ataskaita buvo paskelbta 10 minutes, ne 00:35 UTC
Vėjas 19 kt iš Pietų/Pietryčių su gūsio iki 25 kt
Temperatūra 35°C
Drėgmė 32%
Slėgis 1011 hPa
Matomumas: 16.1 km
Giedras dangus

METAR: KPPA 250035Z AUTO 16019G25KT 10SM CLR 35/16 A2984 RMK AO2 T03520162

Laikas: 19:45 (00:45 UTC)


TAF: trūkstamas

Orai ataskaitas ir orų prognozės (METAR, TAF).

turimą stotys yra geltonos ir raudonos taškus žemėlapyje.

Perkelti pele per norėdami pamatyti stoties vardą.

Tada spustelėkite, norėdami matyti oro stebėjimo ir prognozės.

Norėdami pakeisti žemėlapį: spustelėkite ant žalios mygtukų su juodo kryžiaus žemyn,; žalią mygtuką su brūkšneliu, jei norite nutolinti; arba žalių rodyklių gretimoms žemėlapius.


METAR-TAF: